[[{"header":{"parameterUnit":"m.s-1","parameterCategory":1,"la1":30.2991,"la2":30.254,"lo1":-89.0895,"lo2":-89.0444,"dy":0.0017,"dx":0.0017,"nx":28,"ny":28,"refTime":"2025-06-13T09:00:00:Z","depth":0,"parameterNumber":2,"parameterNumberName":"U-component_of_WINDS"},"data":[0,0,0,0,0,0,0,0,0,0,0,0,0,0,0,0,0,0,0,0,0,0,0,0,0,0,0,0,0,0,0,0,0,0,0,0,0,0,0,0,0,0,0,0,0,0,0,0,0,0,0,0,0,0,0,0,0,0,-0.1706,-0.1704,0,-0.1559,-0.1557,-0.1556,-0.1495,-0.1495,-0.1496,-0.1496,-0.1343,-0.1339,-0.1335,0,0,0,0,0,0,0,0,0,0,0,0,0,-0.1932,-0.1928,-0.1706,-0.1704,-0.1702,-0.1559,-0.1557,-0.1555,-0.1495,-0.1495,-0.1496,-0.1496,-0.1345,-0.1339,-0.1334,0,0,0,0,0,0,0,0,0,0,0,0,0,-0.1814,-0.1927,-0.1706,-0.1655,-0.1649,-0.156,-0.1557,-0.1555,-0.1495,-0.1495,-0.1496,-0.1496,-0.1346,-0.134,-0.1333,-0.1284,0,0,-0.1313,-0.1311,0,0,0,0,0,0,0,0,-0.1821,-0.1806,-0.1664,-0.1658,-0.1651,-0.1546,-0.1581,-0.1464,-0.1495,-0.1553,-0.1496,-0.1496,-0.141,-0.1398,-0.137,-0.1276,-0.127,-0.1313,-0.1309,-0.1306,-0.1304,0,0,0,0,0,0,0,-0.1829,-0.1812,-0.1648,-0.1662,-0.1654,-0.1639,-0.1622,-0.1558,-0.1481,-0.1548,-0.1543,-0.1527,-0.1407,-0.1376,-0.1366,-0.1268,-0.1313,-0.1307,-0.1303,-0.1301,-0.1125,-0.1124,0,0,0,0,0,0,-0.1846,-0.1819,-0.1652,-0.1643,-0.1739,-0.1634,-0.1616,-0.1579,-0.1481,-0.1467,-0.1527,-0.1525,-0.1387,-0.1373,-0.136,-0.1294,-0.1306,-0.13,-0.1296,-0.1126,-0.1125,-0.1124,0,0,0,0,0,0,-0.1851,-0.1832,-0.1658,-0.173,-0.1707,-0.163,-0.1589,-0.1576,-0.1545,-0.1465,-0.1451,-0.151,-0.1387,-0.1369,-0.1303,-0.1288,-0.1297,-0.1291,-0.1127,-0.1126,-0.1125,-0.1164,0,0,0,0,0,0,-0.1858,-0.1834,-0.1815,-0.173,-0.1703,-0.1605,-0.1588,-0.1573,-0.1535,-0.1531,-0.1446,-0.1432,-0.1386,-0.1313,-0.1297,-0.1279,-0.1286,-0.1128,-0.1126,-0.1125,-0.1163,-0.1164,-0.1165,0,0,0,0,0,-0.1867,-0.1832,-0.1814,-0.1795,-0.1678,-0.1604,-0.1588,-0.1537,-0.1534,-0.1513,-0.1462,-0.1435,-0.1293,-0.1307,-0.1288,-0.1268,-0.1128,-0.1127,-0.1125,-0.1163,-0.1164,-0.1165,0,0,0,0,0,0,-0.1916,-0.1819,-0.1799,-0.1736,-0.1679,-0.1594,-0.1567,-0.154,-0.1481,-0.148,-0.1418,-0.1399,-0.1338,-0.1296,-0.1314,-0.1215,-0.1208,-0.1203,-0.1244,-0.1244,-0.1245,-0.1256,-0.1281,0,0,0,0,0,-0.192,-0.1869,-0.1787,-0.1739,-0.1711,-0.1644,-0.161,-0.1575,-0.1513,-0.1488,-0.1432,-0.1372,-0.1314,-0.1277,-0.1219,-0.1157,-0.1137,-0.1135,-0.1135,-0.1136,-0.1132,-0.1096,-0.1093,-0.1119,-0.1119,-0.1119,0,0,-0.1927,-0.1868,-0.1839,-0.1747,-0.1699,-0.1647,-0.1624,-0.157,-0.153,-0.148,-0.1414,-0.1371,-0.1299,-0.1235,-0.1204,-0.1199,-0.1121,-0.1134,-0.1136,-0.113,-0.1094,-0.1091,-0.1089,-0.1118,-0.1118,-0.1118,0,0,-0.1912,-0.1863,-0.1817,-0.1769,-0.1696,-0.1652,-0.1641,-0.156,-0.153,-0.1463,-0.1424,-0.1375,-0.1277,-0.1227,-0.119,-0.1157,-0.1129,-0.114,-0.1143,-0.1108,-0.1106,-0.1104,-0.1092,-0.1088,-0.1136,-0.1136,-0.1136,0,-0.193,-0.185,-0.1797,-0.1745,-0.1705,-0.1658,-0.1611,-0.1567,-0.1479,-0.1452,-0.1448,-0.1323,-0.1271,-0.1195,-0.1187,-0.1158,-0.1143,-0.1149,-0.1111,-0.1108,-0.1106,-0.1093,-0.1089,-0.1138,-0.1137,-0.1137,-0.1137,0,-0.1875,-0.182,-0.1792,-0.1709,-0.1666,-0.1617,-0.1555,-0.1518,-0.1488,-0.1444,-0.1376,-0.1313,-0.1241,-0.122,-0.1189,-0.1139,-0.1138,-0.1123,-0.1116,-0.1106,-0.1093,-0.1088,-0.114,-0.1139,-0.1139,-0.1138,0,0,-0.1887,-0.1776,-0.1766,-0.1727,-0.1644,-0.16,-0.1548,-0.1479,-0.1448,-0.1389,-0.1343,-0.1261,-0.1247,-0.1204,-0.1167,-0.1137,-0.1114,-0.1125,-0.1122,-0.1125,-0.1054,-0.1066,-0.1061,-0.1096,-0.1095,-0.1094,-0.106,0,-0.1861,-0.1767,-0.1718,-0.1645,-0.1593,-0.1548,-0.1502,-0.1446,-0.1403,-0.1353,-0.1305,-0.1248,-0.1234,-0.1207,-0.1176,-0.1124,-0.1099,-0.1126,-0.1052,-0.105,-0.1071,-0.1054,-0.1066,-0.1037,-0.1055,-0.1054,-0.1053,0,-0.1818,-0.176,-0.1682,-0.1604,-0.1581,-0.1541,-0.1473,-0.1426,-0.1361,-0.1332,-0.1284,-0.1248,-0.119,-0.1188,-0.1108,-0.1127,-0.1094,-0.1064,-0.1062,-0.1052,-0.1051,-0.1044,-0.1027,-0.1023,-0.1045,-0.1045,-0.1046,0,-0.1835,-0.1737,-0.1677,-0.1646,-0.1554,-0.1527,-0.1487,-0.1422,-0.1383,-0.1324,-0.1298,-0.1233,-0.1197,-0.1146,-0.1093,-0.1096,-0.1018,-0.1011,-0.0992,-0.0993,-0.0977,-0.0978,-0.0954,-0.0957,-0.0957,-0.0957,-0.0957,0,-0.181,-0.1764,-0.1684,-0.1647,-0.1594,-0.1537,-0.1485,-0.1442,-0.1385,-0.1338,-0.1295,-0.1252,-0.1184,-0.1133,-0.1091,-0.103,-0.1014,-0.0989,-0.0978,-0.0992,-0.0996,-0.0969,-0.097,-0.0956,-0.0956,-0.0956,-0.0956,0,-0.182,-0.1764,-0.1696,-0.1614,-0.1592,-0.1557,-0.1486,-0.1448,-0.1404,-0.1345,-0.1328,-0.1258,-0.1195,-0.1137,-0.1053,-0.1025,-0.0964,-0.095,-0.0986,-0.098,-0.0964,-0.0966,-0.0921,-0.0912,-0.0922,-0.0922,-0.0922,0,-0.1808,-0.1771,-0.1685,-0.1652,-0.1613,-0.1559,-0.1519,-0.1462,-0.1422,-0.1345,-0.1316,-0.1251,-0.1195,-0.1096,-0.1037,-0.0972,-0.0957,-0.0945,-0.0947,-0.0962,-0.0956,-0.0958,-0.0954,-0.0946,-0.0946,-0.0946,-0.0946,0,-0.1792,-0.1766,-0.1711,-0.1647,-0.1601,-0.1547,-0.1492,-0.1466,-0.1398,-0.1356,-0.1291,-0.1248,-0.1163,-0.1098,-0.1026,-0.0984,-0.0954,-0.0947,-0.0939,-0.0953,-0.0975,-0.0962,-0.0988,-0.0948,-0.0948,-0.0948,-0.0947,-0.0947,-0.1789,-0.1755,-0.1689,-0.1629,-0.1582,-0.1531,-0.1492,-0.1442,-0.1388,-0.1314,-0.1284,-0.1218,-0.1153,-0.1054,-0.1012,-0.096,-0.0953,-0.0942,-0.0939,-0.0937,-0.0939,-0.0984,-0.0946,-0.0946,-0.0946,-0.0946,-0.0946,0,-0.1771,-0.1727,-0.1673,-0.1597,-0.155,-0.1526,-0.1463,-0.1425,-0.1368,-0.131,-0.1257,-0.1182,-0.1119,-0.1055,-0.0988,-0.0958,-0.0942,-0.0942,-0.0943,-0.0934,-0.0949,-0.0962,-0.0956,-0.0956,-0.0956,-0.0956,-0.0956,-0.0956,-0.1756,-0.1696,-0.1663,-0.1578,-0.1534,-0.147,-0.1436,-0.1389,-0.1342,-0.1262,-0.1209,-0.1168,-0.1107,-0.1035,-0.0976,-0.0958,-0.0935,-0.0939,-0.0918,-0.0933,-0.0933,-0.0933,-0.0945,-0.0935,-0.0935,-0.0907,-0.0907,-0.0907]},{"header":{"parameterUnit":"m.s-1","parameterCategory":1,"la1":30.2991,"la2":30.254,"lo1":-89.0895,"lo2":-89.0444,"dy":0.0017,"dx":0.0017,"nx":28,"ny":28,"refTime":"2025-06-13T09:00:00:Z","depth":0,"parameterNumber":3,"parameterNumberName":"V-component_of_WINDS"},"data":[0,0,0,0,0,0,0,0,0,0,0,0,0,0,0,0,0,0,0,0,0,0,0,0,0,0,0,0,0,0,0,0,0,0,0,0,0,0,0,0,0,0,0,0,0,0,0,0,0,0,0,0,0,0,0,0,0,0,5.1736,5.1736,0,5.1776,5.1777,5.1777,5.1727,5.1725,5.1723,5.1721,5.1759,5.1762,5.1764,0,0,0,0,0,0,0,0,0,0,0,0,0,5.1611,5.1614,5.1736,5.1736,5.1737,5.1776,5.1777,5.1777,5.1727,5.1725,5.1723,5.1721,5.1758,5.1761,5.1764,0,0,0,0,0,0,0,0,0,0,0,0,0,5.166,5.1615,5.1736,5.1717,5.1715,5.1776,5.1777,5.1778,5.1728,5.1725,5.1722,5.1719,5.1757,5.1761,5.1765,5.1845,0,0,5.1777,5.1779,0,0,0,0,0,0,0,0,5.1657,5.1664,5.1719,5.1718,5.1717,5.1744,5.1747,5.18,5.1728,5.1723,5.1721,5.1718,5.1756,5.176,5.1773,5.1847,5.1849,5.1778,5.178,5.1782,5.1783,0,0,0,0,0,0,0,5.1654,5.1662,5.1752,5.172,5.1718,5.1705,5.1709,5.1757,5.1754,5.1723,5.172,5.1725,5.1755,5.177,5.1774,5.1849,5.1778,5.1781,5.1784,5.1785,5.1992,5.1995,0,0,0,0,0,0,5.1653,5.166,5.175,5.1753,5.168,5.1709,5.1714,5.1738,5.1754,5.1753,5.1728,5.1723,5.1764,5.1769,5.1775,5.1871,5.1782,5.1786,5.1788,5.1989,5.1992,5.1996,0,0,0,0,0,0,5.1651,5.1662,5.1749,5.1706,5.1716,5.1714,5.1742,5.174,5.1755,5.1757,5.1756,5.1744,5.1762,5.1769,5.1829,5.1871,5.1788,5.1791,5.1985,5.199,5.1994,5.2063,0,0,0,0,0,0,5.1647,5.1661,5.1693,5.1707,5.1718,5.1803,5.1745,5.1743,5.1763,5.1757,5.1772,5.1771,5.176,5.1823,5.1833,5.1876,5.1794,5.1981,5.1987,5.1993,5.2057,5.2069,5.208,0,0,0,0,0,5.1643,5.1709,5.1694,5.1706,5.1758,5.1806,5.1812,5.1799,5.1766,5.1797,5.1799,5.1771,5.1865,5.1829,5.184,5.1885,5.1978,5.1985,5.1992,5.2052,5.2067,5.208,0,0,0,0,0,0,5.1698,5.1711,5.1694,5.1767,5.1786,5.1797,5.1836,5.1816,5.1843,5.1836,5.1817,5.1821,5.1885,5.189,5.185,5.1964,5.1916,5.1926,5.1958,5.1972,5.1984,5.1981,5.1798,0,0,0,0,0,5.1719,5.1759,5.1767,5.183,5.1841,5.1837,5.1857,5.1846,5.1864,5.1871,5.1877,5.1894,5.1928,5.195,5.1981,5.2057,5.206,5.2093,5.2105,5.2114,5.2123,5.2164,5.2179,5.2018,5.2018,5.2018,0,0,5.1762,5.1774,5.18,5.1842,5.1855,5.1895,5.1844,5.1888,5.1918,5.1877,5.1935,5.1939,5.1958,5.2026,5.2057,5.2033,5.2168,5.2123,5.2131,5.2134,5.2173,5.2188,5.2201,5.2023,5.2022,5.2021,0,0,5.1862,5.1875,5.193,5.1944,5.1966,5.1963,5.1976,5.1991,5.1993,5.205,5.2021,5.2055,5.2113,5.2128,5.2143,5.2249,5.2225,5.2259,5.232,5.236,5.2373,5.2384,5.2422,5.2436,5.2268,5.2268,5.2268,0,5.1912,5.1973,5.196,5.2007,5.2027,5.1994,5.2049,5.2063,5.2093,5.2106,5.208,5.2153,5.2163,5.2234,5.2261,5.2274,5.2288,5.2258,5.2373,5.2384,5.2394,5.243,5.2444,5.2272,5.2271,5.2271,5.2271,0,5.2035,5.2077,5.2119,5.2151,5.2174,5.2225,5.2219,5.2244,5.2231,5.2231,5.229,5.2301,5.2334,5.235,5.2336,5.242,5.2405,5.2376,5.2327,5.2414,5.2447,5.2461,5.2278,5.2276,5.2275,5.2274,0,0,5.217,5.2194,5.221,5.2224,5.2246,5.2278,5.2327,5.2361,5.2383,5.2405,5.2446,5.2496,5.247,5.2487,5.2475,5.251,5.2595,5.2477,5.2477,5.2499,5.2688,5.271,5.2726,5.2579,5.2581,5.2583,5.2687,0,5.227,5.2357,5.2347,5.2429,5.2469,5.2438,5.2481,5.2499,5.25,5.2532,5.2533,5.2569,5.2532,5.2542,5.2576,5.2577,5.2632,5.257,5.2616,5.2618,5.2613,5.2744,5.2767,5.2864,5.27,5.2702,5.2703,0,5.2398,5.2427,5.2514,5.2531,5.2547,5.2586,5.2616,5.2648,5.2667,5.2665,5.2685,5.2667,5.2716,5.2667,5.2733,5.2691,5.2709,5.2713,5.2716,5.272,5.2666,5.2752,5.2895,5.2909,5.2724,5.2722,5.2721,0,5.2489,5.2548,5.2609,5.2622,5.2642,5.2671,5.268,5.2697,5.2718,5.2744,5.2758,5.2789,5.2806,5.283,5.2821,5.2786,5.2889,5.2839,5.2889,5.2889,5.2912,5.2911,5.306,5.2923,5.2923,5.2923,5.2922,0,5.2602,5.2656,5.265,5.2687,5.2747,5.2735,5.2794,5.28,5.2815,5.2852,5.2827,5.2862,5.2847,5.2881,5.2874,5.293,5.2938,5.2937,5.2935,5.294,5.294,5.2951,5.2945,5.2927,5.2926,5.2925,5.2924,0,5.2713,5.2711,5.2775,5.279,5.2795,5.2839,5.2851,5.2885,5.2885,5.2932,5.2942,5.2941,5.298,5.2973,5.3015,5.301,5.3081,5.307,5.3075,5.3073,5.3123,5.3118,5.3285,5.3306,5.3156,5.3157,5.3158,0,5.2785,5.2827,5.2847,5.2871,5.2884,5.2922,5.2944,5.2933,5.2957,5.2982,5.3014,5.305,5.3079,5.3142,5.3145,5.3177,5.3166,5.3223,5.3171,5.3175,5.3168,5.3166,5.317,5.3233,5.3235,5.3236,5.3237,0,5.2915,5.2912,5.2946,5.298,5.3008,5.3033,5.3056,5.3077,5.3068,5.3096,5.3136,5.3159,5.3203,5.3239,5.327,5.3278,5.3256,5.3254,5.3267,5.3272,5.3274,5.3274,5.3104,5.325,5.3248,5.3247,5.3247,5.3246,5.3009,5.3045,5.3065,5.3104,5.3121,5.3143,5.3177,5.3182,5.3215,5.3251,5.3242,5.3288,5.3306,5.3345,5.3357,5.3391,5.337,5.3389,5.3394,5.3399,5.3406,5.3269,5.3397,5.3396,5.3396,5.3396,5.3395,0,5.3137,5.3149,5.3185,5.3219,5.325,5.3228,5.3253,5.3279,5.332,5.334,5.3369,5.3416,5.3451,5.3457,5.3491,5.3518,5.3509,5.3527,5.3525,5.3527,5.3422,5.3408,5.3534,5.3534,5.3534,5.3534,5.3534,5.3534,5.3208,5.3268,5.3268,5.3336,5.3347,5.3393,5.3409,5.3429,5.3445,5.3498,5.3529,5.3533,5.3546,5.3581,5.3613,5.3614,5.3627,5.365,5.3647,5.3548,5.3534,5.3521,5.3508,5.3653,5.3653,5.3749,5.375,5.375]}]]